Regional Weather Roundup
Issued by NWS

Home | Current Version | Previous Version | Graphics & Text | Print | Product List | Glossary On
Versions: 1 2 3 4 5 6 7 8 9 10 11 12 13 14 15 16 17 18 19 20 21 22 23 24 25 26 27 28 29 30 31 32 33 34 35 36 37 38 39 40 41 42 43 44 45 46 47 48 49 50
000
ASUS43 KIND 302159
RWRIN

WEATHER ROUNDUP FOR INDIANA
NATIONAL WEATHER SERVICE INDIANAPOLIS IN
600 PM EDT FRI SEP 30 2016

NOTE: "FAIR" INDICATES FEW OR NO CLOUDS BELOW 12,000 FEET WITH NO
SIGNIFICANT WEATHER AND/OR OBSTRUCTIONS TO VISIBILITY.

* - STATION DOES NOT REPORT WEATHER SUCH AS PRECIPITATION OR FOG.

+ - STATION NOT QUALITY CONTROLLED BY THE NATIONAL WEATHER SERVICE.
    USE DATA WITH CAUTION...ESPECIALLY DEWPOINT AND RELATIVE
    HUMIDITY OBSERVATIONS.

INZ001>003-010>013-019-020-302300-
NORTHWEST INDIANA

CITY           SKY/WX    TMP DP  RH WIND       PRES   REMARKS
GARY /AIRPORT/ CLOUDY    64  63  94 N14G25    30.06S

$$

LMZ046-743>745-302300-
SOUTHERN LAKE MICHIGAN

STATION/POSITION TIME  TEMP    WIND        PRES    WAVE
                       AIR SEA DIR/SP/G            HT
                 (UTC) (F)     (DEG/KT/KT) (MB)    (FT)
BURNS HARBOR     2140   63      40/ 20/ 22 1017.6S
MICHIGAN CITY    2130   62      30/ 20/ 23   N/A
5NW MICH CITY    2150   62 64   40/ 17/ 21   N/A     5

$$

INZ004-005-014>016-021>024-302300-
NORTH CENTRAL INDIANA

CITY           SKY/WX    TMP DP  RH WIND       PRES   REMARKS
ELKHART        CLOUDY    61  57  88 NE9       30.06S
GOSHEN         HVY RAIN  61  58  90 NE12      30.05S VSB 1
SOUTH BEND     RAIN      61  58  90 NE9       30.07R

$$

INZ006>009-017-018-025>027-302300-
NORTHEAST INDIANA

CITY           SKY/WX    TMP DP  RH WIND       PRES   REMARKS
ANGOLA *+        N/A     61  48  63 E8        30.07R
FORT WAYNE     LGT RAIN  62  59  90 E8        30.03S
KENDALLVILLE + CLOUDY    61  60  98 E12       30.06S

$$

INZ028-029-035-036-043>045-051>053-302300-
WEST CENTRAL INDIANA

CITY           SKY/WX    TMP DP  RH WIND       PRES   REMARKS
CRAWFORDSVL +  CLOUDY    60  60 100 NE3       29.99S
LAFAYETTE      CLOUDY    66  58  75 NE12      29.99S
TERRE HAUTE    LGT RAIN  64  58  80 NW6       29.99R

$$

INZ030>032-037>040-046>048-054>057-064-065-302300-
CENTRAL INDIANA

CITY           SKY/WX    TMP DP  RH WIND       PRES   REMARKS
COLUMBUS       MOSUNNY   64  59  82 S5        29.99S
INDIANAPOLIS   CLOUDY    61  59  93 NE6       29.98R THUNDER
-EAGLE CREEK   CLOUDY    62  58  86 CALM      29.98S
KOKOMO *+      CLOUDY    64  57  77 E13       30.01S
MT COMFORT *+  CLOUDY    63  59  88 NE6       29.98F
SHELBYVILLE    CLOUDY    69  52  54 S8        29.97R

$$

INZ033-034-041-042-049-050-058-059-302300-
EAST CENTRAL INDIANA

CITY           SKY/WX    TMP DP  RH WIND       PRES   REMARKS
MUNCIE         LGT RAIN  61  60  97 E10       30.00R

$$

INZ060-061-067>069-081>083-085>088-302300-
SOUTHWEST INDIANA

CITY           SKY/WX    TMP DP  RH WIND       PRES   REMARKS
EVANSVILLE     PTSUNNY   69  51  52 CALM      29.98S
HUNTINGBURG *+   N/A     63  52  67 SE5       30.00S

$$

INZ062-063-066-070>080-084-089>092-302300-
SOUTH CENTRAL AND SOUTHEAST INDIANA

CITY           SKY/WX    TMP DP  RH WIND       PRES   REMARKS
BLOOMINGTON    CLOUDY    63  55  75 SW9       29.98S
MADISON *+     CLOUDY    66  48  52 SE7       30.02S
SEYMOUR +      MOSUNNY   64  50  59 S5        30.00R

$$




USA.gov is the U.S. government's official web portal to all federal, state and local government web resources and services.